Showing default

KINEIS-5D, 62082

Orbit data source: Space-Track

KINEIS-5D, 62082 is a French payload satellite in SSO that was launched on Mon, 25 Nov 2024 UTC via an ELECTRON launch vehicle from the Rocket Lab Launch Complex (RLLC). Payload-class satellites include a variety of spacecraft equipped with specific instruments for various scientific and technological missions. These include communications satellites like Starlink; space stations such as the ISS; scientific satellites like the Hubble; Earth observation satellites from companies like Planet Labs, Umbra, and HawkEye 360; GPS; miniature CubeSats for education and research; and military/defense satellites.

Loading next visibility...
Identifier
62082, 2024-219B
Orbit
SSO
Country
Flag of FRFR
Related business
Manufacturer
KINEIS
Mission
Operational Commercial Communications
Bus & Motor
CUBESAT 16U, Unknown motor
Mass
28 kg wet, 28 kg dry
Launch date (UTC)
2024-11-25 (11 months ago)
Launch vehicle
ELECTRON
Launch site
Rocket Lab Launch Complex (RLLC)
Object type
Payload
Rocket body
Debris
Shape & HBR
Box + 2 Pan + 1 Ant, 1.0 m
Radar Cross Section
0.229 m², Medium (>0.1 m² and < 1m²)

Expand to show TLE details & history
Last TLE update: 9 hours ago

TLE from 9 hours ago
0 KINEIS-5D
1 62082U 24219B   25305.62717030  .00001245  00000-0  20462-3 0  9996
2 62082  97.9846 104.3940 0002095  37.4244 322.7109 14.72316924 50271
Epoch: 2025-11-01T15:03Z
TLE epoch observation values (Epoch: 2025-11-01T15:03:07.513Z)
Latitude
-0.00006°
Longitude
-162.54183°
Altitude
655.518 km
Speed
7.53 km/s
True Right ascension
06h 57m 34s
True Declination
0° 00' 00"
Sunlit
Object was in daylight at epoch
Visualization orbit readout
Latitude
Unknown
Longitude
Unknown
Altitude
Unknown
Speed
Unknown
Apparent Right ascension
Unknown
Apparent Declination
Unknown
Sunlit
N/A
Visualization observer readout
Local Sidereal Time
19:34:55
Azimuth
Unknown
Elevation
Unknown
Doppler factor
Unknown
Orbital elements
Apogee altitude
652.209 km
Perigee altitude
649.264 km
Semi-major axis
7,028.873 km
Eccentricity
0.00021
Inclination
97.9846°
RAAN
104.394°
Arg. of periapsis
37.4244°
True anomaly
322.69635°
Mean anomaly
322.7109°
Eccentric anomaly
322.70363°
Mean motion
3.68311 °/min
Orbital period
97.74 mins
BSTAR
0.00020462
Loading maneuver chart data...
Computing Atmospheric mass density...
Loading historical data...
Loading historical data...
Loading historical data...
Loading historical data...
Loading historical data...
Loading historical data...
Loading historical data...

Documentation

Showing up to 5 results
|